Year;Month;Day;Time;MJD;Mass_X;Mass_Y;Mass_Z;Motion_X;Motion_Y;Motion_Z
2008;01;01;00:00:00;54466.0;-7.558167301351699e-08;-1.726901558879314e-07;-7.020628144397665e-10;-7.917133694553435e-08;-4.164463853812410e-08;6.722016646548180e-10
2008;01;01;03:00:00;54466.125;-8.133933279219456e-08;-1.625802406093378e-07;-7.362706045820728e-10;-9.628006184743727e-08;1.567612433634591e-09;7.969309242854205e-10
2008;01;01;06:00:00;54466.250;-8.048705959069321e-08;-1.440020166237630e-07;-7.659915970252086e-10;-8.611807932435687e-08;3.535477519823621e-08;8.839082936875684e-10
2008;01;01;09:00:00;54466.375;-8.379990407712685e-08;-1.289960311613366e-07;-7.415256556458186e-10;-7.877496876451314e-08;1.521544003397702e-08;9.843429669730282e-10
2008;01;01;12:00:00;54466.500;-9.543092438706398e-08;-1.131976566394681e-07;-7.114776239487712e-10;-5.162890233502878e-08;2.192239175492992e-09;1.129564227660110e-09
2008;01;01;15:00:00;54466.625;-1.094911515740873e-07;-1.106885917716949e-07;-7.241322165488854e-10;-1.890537330414751e-08;6.336796838300054e-08;1.172925253251700e-09
2008;01;01;18:00:00;54466.750;-1.189314924680552e-07;-1.060049889758902e-07;-7.101316818785025e-10;3.075670271355617e-08;1.142465235793888e-07;1.161372155746829e-09
2008;01;01;21:00:00;54466.875;-1.294725779942230e-07;-1.013530796928590e-07;-6.774860405864397e-10;4.301337320924921e-08;8.203253180761147e-08;1.217228916823000e-09
2008;01;02;00:00:00;54467.0;-1.437984587274809e-07;-1.039804186583322e-07;-6.585286872267233e-10;9.571865011880125e-08;2.516895437834109e-08;1.326598866043381e-09
2008;01;02;03:00:00;54467.125;-1.591249564395407e-07;-1.155726311056424e-07;-6.252461887396512e-10;1.039339097781288e-07;2.424847761566077e-08;1.394286971865091e-09
2008;01;02;06:00:00;54467.250;-1.672408622021347e-07;-1.221997423830317e-07;-5.910411400641968e-10;1.222601844132219e-07;2.888124873891275e-08;1.416735339149739e-09
2008;01;02;09:00:00;54467.375;-1.738415443064658e-07;-1.246639462670405e-07;-5.389198919536792e-10;7.917894510737431e-08;3.171548154724752e-08;1.399638304178948e-09
2008;01;02;12:00:00;54467.500;-1.831136195396633e-07;-1.304582664018736e-07;-5.066628754191577e-10;6.413570827702787e-08;5.953329108980698e-08;1.417456335979968e-09
2008;01;02;15:00:00;54467.625;-1.922234012937415e-07;-1.404527549825746e-07;-5.013256791143256e-10;8.435898217993739e-08;7.848131406420491e-08;1.540384839412849e-09
2008;01;02;18:00:00;54467.750;-1.947463081337602e-07;-1.476202325970799e-07;-4.841628306895284e-10;9.428634996451685e-08;7.522253049892319e-08;1.620053816975670e-09
2008;01;02;21:00:00;54467.875;-1.939975538774431e-07;-1.636536438108428e-07;-4.225189763076423e-10;7.322954124123032e-08;6.147461308087395e-08;1.677800284665899e-09
2008;01;03;00:00:00;54468.0;-1.956674752435647e-07;-1.723613528517009e-07;-3.763020428818062e-10;8.683545205610787e-08;4.331068823917115e-08;1.765309872201958e-09
2008;01;03;03:00:00;54468.125;-1.992514915571675e-07;-1.860844936038267e-07;-3.641161909111393e-10;9.124040369243707e-08;6.218040463791146e-08;1.772596371054878e-09
2008;01;03;06:00:00;54468.250;-1.977906106299910e-07;-2.021577743976713e-07;-3.525267435053999e-10;1.279623759689097e-07;7.481971163360361e-08;1.729640598945630e-09
2008;01;03;09:00:00;54468.375;-1.936530478705745e-07;-2.156917066462718e-07;-3.405603703335731e-10;9.571656196165088e-08;3.262356538933115e-08;1.760986270385768e-09
2008;01;03;12:00:00;54468.500;-1.982896645469836e-07;-2.248612935181692e-07;-3.479497254746807e-10;6.431370453983362e-08;1.815947203230910e-09;1.830561857735679e-09
2008;01;03;15:00:00;54468.625;-1.998166758588775e-07;-2.421132350196680e-07;-3.444138185805498e-10;5.025816934865005e-08;2.682484076301096e-08;1.879743791043088e-09
2008;01;03;18:00:00;54468.750;-1.994232522580902e-07;-2.542022602550399e-07;-3.066506602707360e-10;6.835211469708223e-08;5.879013689666912e-08;1.905455285107520e-09
2008;01;03;21:00:00;54468.875;-1.976254718020560e-07;-2.692395840548113e-07;-2.681033892863635e-10;9.100824342187160e-08;8.683150423725641e-08;1.947068911314459e-09
2008;01;04;00:00:00;54469.0;-1.985256141306658e-07;-2.833840200227136e-07;-2.141929308509521e-10;1.422800368085995e-07;1.244346997180101e-07;2.038324243836330e-09
2008;01;04;03:00:00;54469.125;-2.004185307333227e-07;-2.943690925677782e-07;-2.042083563350158e-10;1.034743870142216e-07;7.969989095103968e-08;2.099002919162791e-09
2008;01;04;06:00:00;54469.250;-2.014707809499741e-07;-2.986809150669974e-07;-1.794142656184813e-10;3.523674269650114e-08;5.738672788843487e-08;2.084921138414921e-09
2008;01;04;09:00:00;54469.375;-2.025634752235203e-07;-3.027195021823365e-07;-1.506711013029449e-10;5.410134613215294e-08;2.600469010729282e-08;2.268348745610939e-09
2008;01;04;12:00:00;54469.500;-2.068398012640462e-07;-2.997607183042426e-07;-1.508632610878022e-10;8.475226475991051e-08;4.771116224286217e-08;2.523634986528728e-09
2008;01;04;15:00:00;54469.625;-2.079624424069330e-07;-2.984856727132077e-07;-1.212664266762838e-10;2.992004670853287e-08;3.118317059839808e-08;2.591424333725819e-09
2008;01;04;18:00:00;54469.750;-2.157509292433227e-07;-3.038050306090604e-07;-9.921782398841645e-11;3.445577949766351e-09;7.387592307225877e-08;2.641819684466122e-09
2008;01;04;21:00:00;54469.875;-2.238467155942018e-07;-3.133973867414968e-07;-9.468886975854557e-11;5.643630352825908e-08;8.201144123090737e-08;2.698656039416178e-09
2008;01;05;00:00:00;54470.0;-2.263640881397903e-07;-3.107904818348309e-07;-8.348242273038840e-11;1.142908913808826e-07;7.175698173510434e-08;2.758070458559328e-09
2008;01;05;03:00:00;54470.125;-2.311896297473997e-07;-3.179551166321278e-07;-7.974559188505480e-11;9.696258754466847e-08;4.735624293971506e-08;2.906542695954050e-09
2008;01;05;06:00:00;54470.250;-2.370006758382055e-07;-3.174333136099325e-07;-8.444585181854041e-11;9.323244851472693e-08;3.536253882500426e-08;2.990936363496308e-09
2008;01;05;09:00:00;54470.375;-2.397256478899363e-07;-3.223475163262085e-07;-8.679803346923164e-11;1.089453522261663e-07;6.529479538190318e-10;2.977704128988292e-09
2008;01;05;12:00:00;54470.500;-2.417407015023480e-07;-3.210864265711258e-07;-1.020815663757865e-10;9.657768734082255e-08;-1.334112633919769e-09;2.981580538274597e-09
2008;01;05;15:00:00;54470.625;-2.402857993311579e-07;-3.228746983801748e-07;-1.495078648112040e-10;2.918859315897136e-08;-1.116440870735996e-08;3.042715005434707e-09
2008;01;05;18:00:00;54470.750;-2.376161038570180e-07;-3.236913227303255e-07;-1.712389725077246e-10;-8.740102420303653e-09;2.134586630024624e-08;3.032485905011061e-09
2008;01;05;21:00:00;54470.875;-2.366723936444237e-07;-3.246909911126124e-07;-1.861040682401390e-10;4.943869439589107e-08;2.471034699573811e-08;3.116755813671948e-09
2008;01;06;00:00:00;54471.0;-2.317823317261666e-07;-3.212991122511973e-07;-2.148998932591289e-10;1.014722021216388e-07;2.726270601201798e-08;3.250456718774228e-09
2008;01;06;03:00:00;54471.125;-2.273272485379225e-07;-3.191398894075194e-07;-2.348029184823593e-10;4.722859293913064e-08;-1.495088092877324e-08;3.321600142383747e-09
2008;01;06;06:00:00;54471.250;-2.233330616429591e-07;-3.148700441104496e-07;-2.458885714883021e-10;-1.218478153953139e-08;-1.004193426537076e-08;3.299914152159873e-09
2008;01;06;09:00:00;54471.375;-2.216654377673682e-07;-3.163946525258588e-07;-2.514729039250566e-10;-9.929617778976850e-09;-4.993797277079078e-08;3.263836361446329e-09
2008;01;06;12:00:00;54471.500;-2.201119949923205e-07;-3.077982457971230e-07;-2.647674544419667e-10;2.560200243272515e-09;-7.214730246073129e-08;3.278888037833818e-09
2008;01;06;15:00:00;54471.625;-2.151018335309625e-07;-3.054959442581036e-07;-2.857305133410007e-10;-7.069772779074898e-08;-3.872840292431804e-08;3.270084194528712e-09
2008;01;06;18:00:00;54471.750;-2.079372456814727e-07;-2.926139186934596e-07;-2.808529519268496e-10;-9.025830480871215e-08;3.696568544871078e-08;3.200328283038141e-09
2008;01;06;21:00:00;54471.875;-2.026639165936421e-07;-2.805458522375630e-07;-2.717828306431945e-10;-4.116361430803026e-08;4.283086761354550e-08;3.219088418083520e-09
2008;01;07;00:00:00;54472.0;-1.966745132714632e-07;-2.688926330284911e-07;-2.825106554654924e-10;3.588498539162941e-08;4.672870410314166e-08;3.292689744584738e-09
2008;01;07;03:00:00;54472.125;-1.917693285367178e-07;-2.571968365642496e-07;-2.751019578215391e-10;1.142403076334852e-08;3.046854049841962e-08;3.264690598621782e-09
2008;01;07;06:00:00;54472.250;-1.841368131186543e-07;-2.492993262565424e-07;-2.694328852241944e-10;-2.866404095455289e-08;6.905044956533345e-08;3.180496673371951e-09
2008;01;07;09:00:00;54472.375;-1.769854280982950e-07;-2.381931560378499e-07;-2.666721218047267e-10;-5.548162506566953e-09;6.669771861675006e-08;3.175297954451537e-09
2008;01;07;12:00:00;54472.500;-1.703987940915410e-07;-2.213004248489476e-07;-2.557725028266075e-10;3.072029091575565e-08;6.099154716126923e-08;3.178230958064111e-09
2008;01;07;15:00:00;54472.625;-1.664630182979588e-07;-2.058046757968042e-07;-2.780372770179538e-10;-3.438143400492107e-09;4.958019520469173e-08;3.139646279011730e-09
2008;01;07;18:00:00;54472.750;-1.602014682945718e-07;-1.940724363727268e-07;-2.864109348546450e-10;-3.146499540307928e-08;9.396793828924349e-08;3.082776670872931e-09
2008;01;07;21:00:00;54472.875;-1.539952621955368e-07;-1.865435379317485e-07;-2.979858364899253e-10;2.162998195083151e-08;1.044577971799402e-07;3.030300477177938e-09
2008;01;08;00:00:00;54473.0;-1.477546059115062e-07;-1.695217717140300e-07;-3.390539426585919e-10;8.703702433694110e-08;8.532052560197393e-08;3.005877390255258e-09
2008;01;08;03:00:00;54473.125;-1.472198981239879e-07;-1.601016101563126e-07;-3.549743832965458e-10;6.125385777101401e-08;4.247636815481059e-08;2.906089143699227e-09
2008;01;08;06:00:00;54473.250;-1.454507231853678e-07;-1.558410308015423e-07;-3.598227246186492e-10;4.533184078841744e-08;7.095856275204833e-08;2.764206716427879e-09
2008;01;08;09:00:00;54473.375;-1.431234706850601e-07;-1.583788110181149e-07;-4.097514386367148e-10;5.336247478686186e-08;8.109991705255587e-08;2.726063813926996e-09
2008;01;08;12:00:00;54473.500;-1.378020488122838e-07;-1.503440116492607e-07;-4.405299747317021e-10;7.672166883614827e-08;8.141445989522686e-08;2.694110658015046e-09
2008;01;08;15:00:00;54473.625;-1.358444645618122e-07;-1.492554388645327e-07;-4.770872761096501e-10;6.634385735017475e-08;7.696400609150594e-08;2.589864563246898e-09
2008;01;08;18:00:00;54473.750;-1.318490782045429e-07;-1.536274230343095e-07;-4.924403888208512e-10;8.730621017235454e-08;9.524289948575352e-08;2.450566195465608e-09
2008;01;08;21:00:00;54473.875;-1.278535900578300e-07;-1.608716866103474e-07;-5.252139689397981e-10;1.009463482217593e-07;8.353974079631889e-08;2.361136126910630e-09
2008;01;09;00:00:00;54474.0;-1.226306233416892e-07;-1.625622648836940e-07;-5.671726907474197e-10;1.222379274459496e-07;5.315304086947801e-08;2.311022620048499e-09
2008;01;09;03:00:00;54474.125;-1.202343562352428e-07;-1.725563592789541e-07;-5.733363382856550e-10;8.722338033639910e-08;6.065484724730990e-08;2.273201548727079e-09
2008;01;09;06:00:00;54474.250;-1.162067664198580e-07;-1.744372310810829e-07;-5.905716460846686e-10;8.572518912419045e-08;9.232916281788880e-08;2.200707183316270e-09
2008;01;09;09:00:00;54474.375;-1.152714297155110e-07;-1.724583493033093e-07;-6.294067139153999e-10;8.020679249088714e-08;8.652063827039099e-08;2.192465469062931e-09
2008;01;09;12:00:00;54474.500;-1.120835152426409e-07;-1.708388518724973e-07;-6.578687088827998e-10;7.037626761922574e-08;9.735963235315645e-08;2.173122867235958e-09
2008;01;09;15:00:00;54474.625;-1.153653649279867e-07;-1.678400714814572e-07;-7.070138523695046e-10;6.744635874251113e-08;1.372796136006844e-07;2.144137241270959e-09
2008;01;09;18:00:00;54474.750;-1.114712521478303e-07;-1.708599124472242e-07;-7.387865426443804e-10;9.389471088387481e-08;1.722064398358152e-07;2.106622105716159e-09
2008;01;09;21:00:00;54474.875;-1.094527436566199e-07;-1.772934013711980e-07;-8.087918831256936e-10;1.029906006011850e-07;1.133151193925672e-07;1.962038498338378e-09
2008;01;10;00:00:00;54475.0;-1.027201323268514e-07;-1.785334486380452e-07;-8.640193626508138e-10;1.179916355159491e-07;4.183192061639206e-08;1.822391269605439e-09
2008;01;10;03:00:00;54475.125;-1.034867720651390e-07;-1.902735575754636e-07;-8.783774510025767e-10;1.072375320909001e-07;7.119466227362199e-08;1.743652083693189e-09
2008;01;10;06:00:00;54475.250;-1.023546956467049e-07;-1.999189597482769e-07;-8.937652068300467e-10;1.411058484946620e-07;8.272119766663713e-08;1.695059930975198e-09
2008;01;10;09:00:00;54475.375;-1.014954052064872e-07;-2.146134871999692e-07;-8.912017989338484e-10;1.185724335083829e-07;2.027920085249419e-08;1.666526669891209e-09
2008;01;10;12:00:00;54475.500;-9.874066401990753e-08;-2.291059767859152e-07;-8.872806295220578e-10;1.173360711260491e-07;-1.247569453244820e-08;1.598169958971249e-09
2008;01;10;15:00:00;54475.625;-9.921565158374085e-08;-2.459131272647926e-07;-8.969840422310052e-10;9.733050732352761e-08;-1.368855754613640e-09;1.506571119313799e-09
2008;01;10;18:00:00;54475.750;-9.437816466281780e-08;-2.586750051614402e-07;-9.126673580678483e-10;1.046993113040089e-07;1.449298143585400e-08;1.406488695212449e-09
2008;01;10;21:00:00;54475.875;-8.745758495639693e-08;-2.748545725212524e-07;-9.356826753794946e-10;1.008778925098670e-07;6.317363444594858e-09;1.272878349258450e-09
2008;01;11;00:00:00;54476.0;-8.005481462049659e-08;-2.927066970292464e-07;-9.679459237122534e-10;1.381367534478392e-07;-1.209996076771783e-08;1.128902917885200e-09
2008;01;11;03:00:00;54476.125;-7.376300994836044e-08;-3.068102536068687e-07;-9.685820146517027e-10;9.980530565460982e-08;-6.401615024234330e-09;9.997862002813079e-10
2008;01;11;06:00:00;54476.250;-6.099503529833933e-08;-3.207001975511454e-07;-9.803605843023426e-10;7.760124567472887e-08;1.089972078854663e-08;9.071296221131395e-10
2008;01;11;09:00:00;54476.375;-5.285024363140409e-08;-3.372822112317260e-07;-1.007001854243729e-09;7.070150449138725e-08;-8.164569523747232e-08;9.520276614331289e-10
2008;01;11;12:00:00;54476.500;-4.323133594515655e-08;-3.484738520107763e-07;-1.018054190457901e-09;7.189746322507882e-08;-1.706068769522969e-07;9.803123135974478e-10
2008;01;11;15:00:00;54476.625;-3.566290056462793e-08;-3.568866872320402e-07;-1.027476510409254e-09;1.370785916539105e-08;-1.547218626117022e-07;9.072526596817303e-10
2008;01;11;18:00:00;54476.750;-2.553191769696794e-08;-3.620964807390584e-07;-1.038809871273019e-09;4.893931485337962e-09;-9.507652739527529e-08;8.502879073508482e-10
2008;01;11;21:00:00;54476.875;-1.978683335763798e-08;-3.632508226890067e-07;-1.083332477919524e-09;-9.325186609518191e-09;-1.041927750321883e-07;8.581708966792801e-10
2008;01;12;00:00:00;54477.0;-1.351030815833939e-08;-3.598320408580892e-07;-1.104150689565370e-09;2.046887086293394e-08;-1.248238038487542e-07;8.318208977132902e-10
2008;01;12;03:00:00;54477.125;-1.212282911708670e-08;-3.588857985089313e-07;-1.110390651189568e-09;-1.950912319471987e-08;-1.040370424426513e-07;7.811270233895704e-10
2008;01;12;06:00:00;54477.250;-8.771134296812148e-09;-3.568560998193284e-07;-1.127801247097139e-09;-1.653383684617789e-08;-6.680544941105155e-08;7.782638506994583e-10
2008;01;12;09:00:00;54477.375;-9.045793695918703e-09;-3.494913233706599e-07;-1.135957871600797e-09;1.106404242150345e-08;-7.778935356560010e-08;7.119402057827907e-10
2008;01;12;12:00:00;54477.500;-1.054458579812797e-08;-3.376862395753907e-07;-1.121114752494715e-09;4.662895666148767e-08;-8.112247430763819e-08;5.998874708802589e-10
2008;01;12;15:00:00;54477.625;-1.721504813966458e-08;-3.353712622550207e-07;-1.098720921128846e-09;5.895684716932860e-08;-1.098822476908782e-07;5.962301676677083e-10
2008;01;12;18:00:00;54477.750;-1.939942186393890e-08;-3.310459860630603e-07;-1.069101262494595e-09;7.416713606252389e-08;-1.204304253902038e-07;6.403655261472885e-10
2008;01;12;21:00:00;54477.875;-2.437876524851295e-08;-3.271858996007709e-07;-1.029309946691841e-09;5.638429804259352e-08;-1.303144179447675e-07;5.289412823698798e-10
2008;01;13;00:00:00;54478.0;-2.770632531489777e-08;-3.180876415911965e-07;-9.758849651424023e-10;4.775621419552992e-08;-1.341227642508169e-07;3.475501068542482e-10
2008;01;13;03:00:00;54478.125;-3.731199894708766e-08;-3.126535913068754e-07;-9.671122728388605e-10;2.265558459842122e-08;-1.178041378643068e-07;3.250545831485298e-10
2008;01;13;06:00:00;54478.250;-3.927056487258605e-08;-3.047184256937511e-07;-9.661047804122627e-10;2.697333088906299e-08;-7.003278945043908e-08;3.076441379418078e-10
2008;01;13;09:00:00;54478.375;-3.455013197278317e-08;-2.942915709419782e-07;-9.793785881748383e-10;2.863193065428962e-08;-6.317359979740500e-08;2.623852587010207e-10
2008;01;13;12:00:00;54478.500;-2.755418726119265e-08;-2.822882658618253e-07;-9.721217132108938e-10;8.668378776557574e-08;-5.300956435125802e-08;2.179585429953501e-10
2008;01;13;15:00:00;54478.625;-2.566443151685862e-08;-2.686858608848430e-07;-9.443101619631698e-10;1.140893170535062e-07;-4.087775479953291e-08;2.344536133629502e-10
2008;01;13;18:00:00;54478.750;-2.090921932575315e-08;-2.626899956670174e-07;-9.127622809418268e-10;1.301741725904615e-07;-1.103080295201742e-08;2.961591106274090e-10
2008;01;13;21:00:00;54478.875;-1.676744236821432e-08;-2.632150097098204e-07;-8.701628850783283e-10;1.400323154549547e-07;-1.444554180658801e-08;2.113594353078105e-10
2008;01;14;00:00:00;54479.0;-1.473395065784781e-08;-2.544891721102075e-07;-8.170125123928585e-10;1.849339281379914e-07;-2.669087189697478e-08;9.523931071574801e-11
2008;01;14;03:00:00;54479.125;-1.577167525836136e-08;-2.539134987149677e-07;-7.902852582685255e-10;1.740889099997014e-07;-8.890400875711377e-08;9.904866571932963e-11
2008;01;14;06:00:00;54479.250;-1.534699166712313e-08;-2.563216174108215e-07;-7.686125242557132e-10;1.183973834331614e-07;-1.183335596776722e-07;1.453732069074202e-10
2008;01;14;09:00:00;54479.375;-1.450418425825436e-08;-2.643330666734730e-07;-7.416163596127220e-10;9.562651732855112e-08;-1.540606477966047e-07;1.571137157119492e-10
2008;01;14;12:00:00;54479.500;-1.491014403198868e-08;-2.682187949628880e-07;-6.948217613301215e-10;8.364755087072903e-08;-1.744690712932433e-07;1.373932010143909e-10
2008;01;14;15:00:00;54479.625;-1.877015032468388e-08;-2.739772595609961e-07;-6.516288383082004e-10;1.701736894646054e-08;-1.550467979614324e-07;1.696046123103804e-10
2008;01;14;18:00:00;54479.750;-1.745056748435289e-08;-2.776135451176893e-07;-6.111721228830484e-10;-7.870466495157002e-09;-9.274481453987438e-08;2.291435554513984e-10
2008;01;14;21:00:00;54479.875;-1.843618764695567e-08;-2.887796596281785e-07;-5.627344333169610e-10;-5.577349079508917e-09;-6.128403123771065e-08;1.246854505502200e-10
2008;01;15;00:00:00;54480.0;-1.526921879488111e-08;-2.956937753640722e-07;-5.116201096706213e-10;2.251567805479856e-08;-4.195762181863825e-08;-1.298248983130088e-11
2008;01;15;03:00:00;54480.125;-1.153236809812984e-08;-3.059772156063421e-07;-4.827812121115898e-10;-7.239143648049044e-09;-6.325951688725790e-08;4.843161488646849e-11
2008;01;15;06:00:00;54480.250;-4.702224871263044e-09;-3.139788097761481e-07;-4.715234526356107e-10;-2.455402434304262e-08;-6.185277625054708e-08;1.307232701605802e-10
2008;01;15;09:00:00;54480.375;-1.965840628069056e-09;-3.257031117871103e-07;-4.724145651297038e-10;-2.003754965757882e-08;-8.830142764767147e-08;3.902949428648056e-11
2008;01;15;12:00:00;54480.500;6.113996550170810e-09;-3.342376937415286e-07;-4.653332946638965e-10;-3.427069196903289e-08;-9.080276614378368e-08;-6.302479015627933e-11
2008;01;15;15:00:00;54480.625;1.229232957209744e-08;-3.361533799028015e-07;-4.489201517942962e-10;-1.053905825023240e-07;-8.113071649354282e-08;-5.976852019672228e-11
2008;01;15;18:00:00;54480.750;1.616436090780063e-08;-3.320441754869224e-07;-4.399265463046809e-10;-1.432521014745989e-07;-3.018046609784790e-08;-4.421013073618139e-11
2008;01;15;21:00:00;54480.875;1.263170791562545e-08;-3.270663648103244e-07;-4.256394124002829e-10;-1.399133425967002e-07;-1.695830124553039e-08;-2.800044367800049e-12
2008;01;16;00:00:00;54481.0;1.277222016978348e-08;-3.205946510428931e-07;-4.103336598236270e-10;-9.822999803245840e-08;3.912292503477672e-09;3.503815421306055e-11
2008;01;16;03:00:00;54481.125;8.138729609425171e-09;-3.204664313563562e-07;-4.343520384134864e-10;-1.361465568862449e-07;1.985450597495648e-08;2.132657951078805e-11
2008;01;16;06:00:00;54481.250;6.078287596948403e-09;-3.188395660092034e-07;-4.546489946236494e-10;-1.346753348942678e-07;5.408409212421191e-08;-9.655346023540873e-12
2008;01;16;09:00:00;54481.375;-3.127077568080752e-09;-3.141406256313795e-07;-4.664003269421570e-10;-1.074044620869862e-07;9.526211924514985e-09;3.537671496223081e-11
2008;01;16;12:00:00;54481.500;-8.926385769405314e-09;-3.100548584457673e-07;-4.706546928546722e-10;-8.848125165735775e-08;-3.568396359107845e-08;1.071868048923487e-10
2008;01;16;15:00:00;54481.625;-1.998340229203191e-08;-3.115651812244192e-07;-4.867150295981687e-10;-1.223990512305883e-07;-3.435008052876711e-08;7.785893965351866e-11
2008;01;16;18:00:00;54481.750;-2.571658562614547e-08;-3.141991120387308e-07;-4.914936130710535e-10;-1.262267710566370e-07;-1.553372964795351e-08;-3.887180507199363e-12
2008;01;16;21:00:00;54481.875;-3.197477899853801e-08;-3.163705603929295e-07;-4.699760696009365e-10;-1.551231186459835e-07;-4.595192765189648e-08;-8.440827679140188e-11
2008;01;17;00:00:00;54482.0;-3.577683653882097e-08;-3.198800721894693e-07;-4.871449392652331e-10;-1.501502578828732e-07;-6.642560986698155e-08;-9.061671488233169e-11
2008;01;17;03:00:00;54482.125;-4.368454375461730e-08;-3.260920972595146e-07;-5.071112899803656e-10;-1.741645203906934e-07;-1.183222635112380e-08;1.651465874221817e-11
2008;01;17;06:00:00;54482.250;-4.539599349921101e-08;-3.320745839955352e-07;-5.148060476819463e-10;-1.242753586403198e-07;5.310421317259349e-08;5.795692656186871e-11
2008;01;17;09:00:00;54482.375;-4.820273251293506e-08;-3.408291933244353e-07;-5.434505480150019e-10;-5.845584193651071e-08;1.053706949666717e-08;3.701934815768777e-11
2008;01;17;12:00:00;54482.500;-4.626309600772287e-08;-3.457058844032198e-07;-5.675529924603634e-10;9.412008380994284e-09;-5.848199178423653e-08;8.263145615456848e-11
2008;01;17;15:00:00;54482.625;-4.430475211246989e-08;-3.502751928891947e-07;-6.227319522877866e-10;-3.534450012020547e-08;-7.342334369523367e-08;1.595367504732497e-10
2008;01;17;18:00:00;54482.750;-4.046885314274169e-08;-3.555619400137182e-07;-6.487322682459300e-10;-4.581162874480059e-08;-3.204796829597561e-08;1.980522641594697e-10
2008;01;17;21:00:00;54482.875;-4.063234438877439e-08;-3.549072018605930e-07;-6.393646306587240e-10;-5.037028453146071e-08;-6.754215186470002e-08;1.512945807229500e-10
2008;01;18;00:00:00;54483.0;-3.850123988648798e-08;-3.473210090941635e-07;-6.279542345753647e-10;-4.162936855450645e-08;-1.071506580951915e-07;1.345614052861308e-10
2008;01;18;03:00:00;54483.125;-3.583947013031882e-08;-3.407335537811976e-07;-6.480337004517449e-10;-8.480979952779761e-08;-5.943566646785051e-08;1.080889031420491e-10
2008;01;18;06:00:00;54483.250;-3.453438821082861e-08;-3.352591341863107e-07;-6.713548203924018e-10;-4.577329993212193e-08;1.316592333358092e-09;3.025846923060071e-11
2008;01;18;09:00:00;54483.375;-3.928198696994878e-08;-3.319993428837314e-07;-6.645246611632646e-10;1.137792877064891e-08;-2.261939928643958e-08;-4.364904259287064e-11
2008;01;18;12:00:00;54483.500;-3.571507322105813e-08;-3.267790633304762e-07;-6.621194137152608e-10;4.608693727034473e-08;-5.162898993507518e-08;-5.506957171003115e-11
2008;01;18;15:00:00;54483.625;-3.331997171866641e-08;-3.237837710320612e-07;-6.978101821359135e-10;-1.227129442776386e-08;-9.633003144666138e-08;9.538840143001984e-11
2008;01;18;18:00:00;54483.750;-3.168215150553064e-08;-3.205129354549214e-07;-6.972552442747753e-10;-5.913436203242690e-08;-9.918125843393077e-08;1.486012155736988e-10
2008;01;18;21:00:00;54483.875;-3.401155223381314e-08;-3.180361485687541e-07;-6.510022704453556e-10;-8.342649267104133e-08;-1.448089578544593e-07;2.633616258598992e-11